Showing default

JAY-D2, 62665

Orbit data source: Space-Track

JAY-D2, 62665 is a Canadian payload satellite in SSO that was launched on Tue, 14 Jan 2025 UTC via an FALCON 9 launch vehicle from the Air Force Western Test Range (AFWTR). Payload-class satellites include a variety of spacecraft equipped with specific instruments for various scientific and technological missions. These include communications satellites like Starlink; space stations such as the ISS; scientific satellites like the Hubble; Earth observation satellites from companies like Planet Labs, Umbra, and HawkEye 360; GPS; miniature CubeSats for education and research; and military/defense satellites.

Loading next visibility...
Identifier
62665, 2025-009BJ
Orbit
SSO
Country
Flag of CACA
Related business
Manufacturer
UTIAS-SFL
Mission
Operational Commercial Imaging
Bus & Motor
DEFIANT, Unknown motor
Mass
~35 kg wet, ~35 kg dry
Launch date (UTC)
2025-01-14 (1 year ago)
Launch vehicle
FALCON 9
Launch site
Air Force Western Test Range (AFWTR)
Object type
Payload
Rocket body
Debris
Shape & HBR
Box + 2 Pan, 0.4 m
Radar Cross Section
0.165 m², Medium (>0.1 m² and < 1m²)

Expand to show TLE details & history
Last TLE update: 14 hours ago

TLE from 14 hours ago
0 JAY-D2
1 62665U 25009BJ  26035.23467431  .00005662  00000-0  25611-3 0  9994
2 62665  97.3999 116.0203 0005587  83.1097 277.0774 15.21295419 58511
Epoch: 2026-02-04T05:37Z
TLE epoch observation values (Epoch: 2026-02-04T05:37:55.860Z)
Latitude
-0.00005°
Longitude
-102.86662°
Altitude
504.553 km
Speed
7.612 km/s
True Right ascension
07h 44m 04s
True Declination
0° 00' 00"
Sunlit
Object was in full shadow at epoch
Visualization orbit readout
Latitude
Unknown
Longitude
Unknown
Altitude
Unknown
Speed
Unknown
Apparent Right ascension
Unknown
Apparent Declination
Unknown
Sunlit
N/A
Visualization observer readout
Local Sidereal Time
21:39:21
Azimuth
Unknown
Elevation
Unknown
Doppler factor
Unknown
Orbital elements
Apogee altitude
502.738 km
Perigee altitude
495.054 km
Semi-major axis
6,877.033 km
Eccentricity
0.00056
Inclination
97.3999°
RAAN
116.0203°
Arg. of periapsis
83.1097°
True anomaly
277.01386°
Mean anomaly
277.0774°
Eccentric anomaly
277.04563°
Mean motion
3.80576 °/min
Orbital period
94.59 mins
BSTAR
0.00025611
Loading maneuver chart data...
Computing Atmospheric mass density...
Loading historical data...
Loading historical data...
Loading historical data...
Loading historical data...
Loading historical data...
Loading historical data...
Loading historical data...

Documentation

Showing up to 5 results
|